Grand Forks, ND

12:29 PM CDT on August 20, 2017 (GMT -0500)
Grand Forks International

Weather History for KGFK - January, 2013

Change the Weather History Date:

Wednesday, January 16, 2013

  Actual Average Record
Temperature  
Mean Temperature 16 °F 6 °F  
Max Temperature 37 °F 16 °F 43 °F (1942)
Min Temperature -5 °F -4 °F -34 °F (1977)
Degree Days  
Heating Degree Days 49 59  
Month to date heating degree days 807 936  
Since 1 July heating degree days 4565 4795  
Cooling Degree Days 0 0  
Month to date cooling degree days 0 0  
Year to date cooling degree days 0 0  
Moisture  
Dew Point 0 °F    
Average Humidity 73    
Maximum Humidity 89    
Minimum Humidity 56    
Precipitation  
Precipitation T in 0.02 in 0.63 in (1967)
Month to date precipitation 0.30 0.30  
Year to date precipitation 0.30 0.30  
Snow  
Snow T in 0.40 in 6.40 in (1967)
Month to date snowfall 2.3 5.9  
Since 1 July snowfall 17.3 25.8  
Snow Depth 5.00 in    
Sea Level Pressure  
Sea Level Pressure 29.99 in    
Wind  
Wind Speed 18 mph (North)    
Max Wind Speed 32 mph    
Max Gust Speed 40 mph    
Visibility 10 miles    
Events Snow    
T = Trace of Precipitation, MM = Missing Value Source: NWS Daily Summary

Daily Weather History Graph

Daily Weather History Graph

Search for Another Location

Airport or City:

Trip Planner

Search our weather history database for the weather conditions in past years. The results will help you decide how hot, cold, wet, or windy it might be!

Date:

Astronomy

Jan. 16, 2013 Rise Set
Actual Time 8:12 AM CST 5:05 PM CST
Civil Twilight 7:37 AM CST 5:40 PM CST
Nautical Twilight 6:59 AM CST 6:18 PM CST
Astronomical Twilight 6:22 AM CST 6:55 PM CST
Moon 10:21 AM CST (1/16) 11:29 PM CST (1/16)
Length of Visible Light 10h 02m
Length of Day
8h 52m
Waxing Crescent, 28% of the Moon is Illuminated
Jan 16
Waxing Crescent
Jan 18
First Quarter
Jan 26
Full
Feb 3
Last Quarter
Feb 10
New

Hourly Weather History & Observations

Time (CST) Temp. Windchill Dew Point Humidity Pressure Visibility Wind Dir Wind Speed Gust Speed Precip Events Conditions
12:53 AM 37.0 °F 27.0 °F 30.9 °F 79% 29.52 in 10.0 mi NW 18.4 mph 25.3 mph N/A   Overcast
1:10 AM 32.0 °F 18.4 °F 26.6 °F 80% 29.51 in 10.0 mi North 26.5 mph 40.3 mph N/A   Overcast
1:53 AM 26.6 °F 12.4 °F 23.0 °F 86% 29.55 in 10.0 mi North 21.9 mph 32.2 mph N/A   Overcast
2:53 AM 24.1 °F 8.0 °F 19.0 °F 81% 29.66 in 10.0 mi North 25.3 mph 28.8 mph N/A   Overcast
3:53 AM 19.0 °F 1.6 °F 12.9 °F 77% 29.70 in 10.0 mi North 24.2 mph 32.2 mph N/A   Mostly Cloudy
4:09 AM 17.6 °F -0.3 °F 12.2 °F 79% 29.66 in 10.0 mi North 24.2 mph 28.8 mph N/A   Mostly Cloudy
4:53 AM 14.0 °F -6.2 °F 9.0 °F 80% 29.74 in 8.0 mi North 27.6 mph 32.2 mph 0.00 in Snow Light Snow
5:53 AM 12.9 °F -4.4 °F 8.1 °F 81% 29.76 in 10.0 mi North 18.4 mph - 0.00 in   Mostly Cloudy
6:53 AM 12.9 °F -5.3 °F 6.1 °F 74% 29.78 in 10.0 mi North 20.7 mph 28.8 mph N/A   Mostly Cloudy
7:53 AM 10.0 °F -9.5 °F 3.0 °F 73% 29.84 in 10.0 mi North 21.9 mph 27.6 mph N/A   Overcast
8:53 AM 9.0 °F -9.5 °F 1.0 °F 70% 29.90 in 10.0 mi North 18.4 mph - N/A   Overcast
9:53 AM 7.0 °F -12.6 °F -0.9 °F 70% 29.95 in 10.0 mi North 19.6 mph 26.5 mph N/A   Overcast
10:53 AM 5.0 °F -15.2 °F -5.1 °F 63% 30.00 in 10.0 mi North 19.6 mph 28.8 mph N/A   Overcast
11:53 AM 5.0 °F -17.5 °F -6.0 °F 61% 30.04 in 10.0 mi NNW 25.3 mph 31.1 mph N/A   Mostly Cloudy
12:53 PM 3.2 °F -20.7 °F -9.4 °F 56% 30.02 in 10.0 mi North 27.6 mph 32.2 mph N/A   Mostly Cloudy
1:53 PM 3.0 °F -18.3 °F -9.0 °F 57% 30.11 in 10.0 mi North 20.7 mph - N/A   Partly Cloudy
2:53 PM 3.0 °F -17.8 °F -8.0 °F 60% 30.15 in 10.0 mi North 19.6 mph - N/A   Partly Cloudy
3:53 PM 1.0 °F -20.9 °F -11.0 °F 57% 30.21 in 10.0 mi North 20.7 mph - N/A   Partly Cloudy
4:53 PM -2.0 °F -21.9 °F -13.0 °F 60% 30.27 in 10.0 mi North 15.0 mph - N/A   Partly Cloudy
5:53 PM -4.0 °F -22.1 °F -14.1 °F 62% 30.29 in 10.0 mi North 11.5 mph - N/A   Scattered Clouds
6:53 PM -5.1 °F -20.4 °F -14.1 °F 65% 30.31 in 10.0 mi NNW 8.1 mph - N/A   Scattered Clouds
7:53 PM -4.0 °F -20.2 °F -14.1 °F 62% 30.32 in 10.0 mi NW 9.2 mph - N/A   Mostly Cloudy
8:53 PM -2.9 °F -18.8 °F -13.0 °F 62% 30.35 in 9.0 mi NW 9.2 mph - 0.00 in   Overcast
9:53 PM -2.9 °F -16.5 °F -11.9 °F 65% 30.37 in 9.0 mi NNW 6.9 mph - 0.00 in   Overcast
10:53 PM -2.9 °F -15.0 °F -11.0 °F 68% 30.36 in 10.0 mi NNE 5.8 mph - 0.00 in   Overcast
11:53 PM -2.9 °F -13.3 °F -11.0 °F 68% 30.33 in 10.0 mi South 4.6 mph - 0.00 in   Overcast